Tracking 29892 objects as of 21-Nov-2024
HD Live streaming from Space Station
objects crossing your sky now

KAZSCISAT-1

Track KAZSCISAT-1 now!
10-day predictions
KAZSCISAT-1 is classified as:


NORAD ID: 43787
Int'l Code: 2018-099AF
Perigee: 485.3 km
Apogee: 492.3 km
Inclination: 97.5 °
Period: 94.2 minutes
Semi major axis: 6859 km
RCS: Unknown
Launch date: November 30, 2018
Source: Kazakhstan (KAZ)
Launch site: AIR FORCE WESTERN TEST RANGE (AFWTR)

Uplink (MHz):
Downlink (MHz): 435.500
Beacon (MHz):
Mode: 9600bps GMSK
Call sign:
Status: Inactive

Your satellite tracking list
Your tracking list is empty




NASA's NSSDC Master Catalog

Two Line Element Set (TLE):
1 43787U 18099AF  24325.74509840  .00052079  00000-0  18945-2 0  9991
2 43787  97.4856  24.9606 0005094 121.5873 238.5864 15.28051749326719
Source of the keplerian elements: AFSPC